User: anonymous   Login
Location: Chuathbaluk
(61.5726°N, 159.2454°W)
Time: 22:47:48
(UTC+00:00)
Language:

Transit 2A Rocket - Orbit

View from above orbital plane
View from above orbital plane
View from above satellite
View from above satellite

Ground track
Ground track

The orbit data is extracted from the following two-line orbital elements,

1    47U 60007C   20339.96261099  .00000083  00000-0  43528-4 0  9990
2    47  66.6671  59.0514 0227824 180.4230 179.6720 14.42119164159710
Epoch (UTC): 04 December 2020 23:06:09
Eccentricity: 0.0227824
inclination: 66.6671°
perigee height: 589 km
apogee height: 914 km
right ascension of ascending node: 59.0514°
argument of perigee: 180.4230°
revolutions per day: 14.42119164
mean anomaly at epoch: 179.6720°
orbit number at epoch: 15971

The dashed part of the orbit path shows where the satellite is in the earth's shadow,  

DLR